,

(GMT )
White Rock

Weather History for CWWK - October, 2012

Change the Weather History Date:

Monday, October 15, 2012

  Actual Average Record
Temperature  
Mean Temperature 54 °F -  
Max Temperature 60 °F - - ()
Min Temperature 48 °F - - ()
Degree Days  
Heating Degree Days 11    
Growing Degree Days 4 (Base 50)    
Moisture  
Dew Point 52 °F    
Average Humidity 89    
Maximum Humidity 94    
Minimum Humidity 77    
Precipitation  
Precipitation 0.20 in - - ()
Sea Level Pressure  
Sea Level Pressure 29.76 in    
Wind  
Wind Speed 2 mph ()    
Max Wind Speed 10 mph    
Max Gust Speed 21 mph    
T = Trace of Precipitation, MM = Missing Value Source: Averaged Metar Reports

Daily Weather History Graph

Daily Weather History Graph

Search for Another Location

Airport or City:

Trip Planner

Search our weather history database for the weather conditions in past years. The results will help you decide how hot, cold, wet, or windy it might be!

Date:

Astronomy

Oct. 15, 2012 Rise Set
Actual Time 7:32 AM PDT 6:20 PM PDT
Civil Twilight 7:00 AM PDT 6:51 PM PDT
Nautical Twilight 6:23 AM PDT 7:28 PM PDT
Astronomical Twilight 5:47 AM PDT 8:05 PM PDT
Moon 7:55 AM PDT (10/15) 6:15 PM PDT (10/15)
Length of Visible Light 11h 51m
Length of Day
10h 47m
New Moon, 0% of the Moon is Illuminated
Oct 15
New Moon
Oct 21
First Quarter
Oct 29
Full
Nov 6
Last Quarter
Nov 13
New

Hourly Weather History & Observations

Time (PDT) Temp. Dew Point Humidity Pressure Visibility Wind Dir Wind Speed Gust Speed Precip Events Conditions
12:00 AM 54.9 °F 52.9 °F 93% 29.88 in - Calm Calm - N/A   Unknown
1:00 AM 53.6 °F 51.6 °F 93% 29.88 in - Calm Calm - N/A   Unknown
2:00 AM 52.7 °F 50.7 °F 93% 29.89 in - West 2.3 mph - N/A   Unknown
3:00 AM 52.9 °F 51.1 °F 94% 29.90 in - West 1.2 mph - N/A   Unknown
4:00 AM 50.7 °F 48.9 °F 94% 29.90 in - Calm Calm - N/A   Unknown
5:00 AM 49 °F 47 °F 92% 29.92 in - NNE 2.3 mph - -  
5:00 AM 49.3 °F 47.5 °F 94% 29.92 in - NNE 2.3 mph - N/A   Unknown
6:00 AM 48.6 °F 46.9 °F 94% 29.93 in - NE 1.2 mph - N/A   Unknown
7:00 AM 51.1 °F 49.5 °F 94% 29.94 in - NE 1.2 mph - N/A   Unknown
8:00 AM 51.4 °F 49.8 °F 94% 29.94 in - East 2.3 mph - N/A   Unknown
9:00 AM 52.7 °F 51.1 °F 94% 29.94 in - East 2.3 mph - N/A   Unknown
10:00 AM 54.1 °F 52.3 °F 94% 29.94 in - SE 4.6 mph - N/A   Unknown
11:00 AM 54 °F 51 °F 88% 29.91 in - SE 3.5 mph - -  
11:00 AM 54.3 °F 51.4 °F 90% 29.91 in - SE 3.5 mph - N/A   Unknown
12:00 PM 59.4 °F 52.7 °F 79% 29.86 in - SE 2.3 mph - N/A   Unknown
1:00 PM 58.5 °F 51.3 °F 77% 29.86 in - South 3.5 mph - N/A   Unknown
2:00 PM 58.1 °F 52.0 °F 80% 29.79 in - ENE 3.5 mph - N/A   Unknown
3:00 PM 57.0 °F 52.7 °F 85% 29.74 in - ENE 4.6 mph - 0.01 in   Unknown
4:00 PM 56.1 °F 52.7 °F 88% 29.68 in - NNE 3.5 mph - 0.07 in   Unknown
5:00 PM 55 °F 53 °F 88% 29.59 in - NE 5.8 mph - -  
5:00 PM 55.2 °F 52.5 °F 91% 29.59 in - NE 5.8 mph - 0.12 in   Unknown
6:00 PM 54.7 °F 52.2 °F 91% 29.52 in - NE 5.8 mph - 0.06 in   Unknown
7:00 PM 54.7 °F 52.2 °F 91% 29.51 in - NE 5.8 mph - 0.07 in   Unknown
8:00 PM 56.5 °F 54.3 °F 92% 29.49 in - East 3.5 mph - 0.07 in   Unknown
9:00 PM 60.3 °F 56.7 °F 88% 29.48 in - SSE 10.4 mph 20.7 mph N/A   Unknown
10:00 PM 59.4 °F 55.4 °F 87% 29.49 in - South 3.5 mph - N/A   Unknown
11:00 PM 58 °F 53 °F 80% 29.51 in - SW 3.5 mph - -  
11:00 PM 57.9 °F 53.4 °F 85% 29.51 in - SW 3.5 mph - N/A   Unknown